User: anonymous   Login
Location: *
(44.1392°N, 4.8079°E)
Time: 21:43:55
(UTC+00:00)
Language:

DELTA 1 DEB - Orbit

View from above orbital plane
View from above orbital plane
View from above satellite
View from above satellite

Ground track
Ground track

The orbit data is extracted from the following two-line orbital elements,

1 37659U 78026JW  22020.54067349  .00000073  00000-0  11308-3 0  9993
2 37659  98.8695 127.0659 0156222 274.4219  83.9097 13.73273024869364
Epoch (UTC): 20 January 2022 12:58:34
Eccentricity: 0.0156222
inclination: 98.8695°
perigee height: 873 km
apogee height: 1103 km
right ascension of ascending node: 127.0659°
argument of perigee: 274.4219°
revolutions per day: 13.73273024
mean anomaly at epoch: 83.9097°
orbit number at epoch: 86936

The dashed part of the orbit path shows where the satellite is in the earth's shadow,  

DLR